GW0801 Weather Reports


time (UTC)temp
F
wind
direction
speed
knots
gust
knots
rain 1hr
in
rain 24hr
in
rain mn
in
humidity
%
barometer
mb
20260505080900 55 302 4.3 7.0 0.00 0.00 0.00 65 1019.2
20260505080355 55 320 7.0 7.8 0.00 0.00 0.00 64 1019.0
20260505075851 55 299 2.6 6.1 0.00 0.00 0.00 64 1019.3
20260505075348 55 301 6.1 9.6 0.00 0.00 0.00 62 1019.2
20260505074846 55 319 7.0 7.8 0.00 0.00 0.00 60 1019.6
20260505074343 56 267 5.2 8.7 0.00 0.00 0.00 59 1019.2
20260505073840 56 296 3.5 9.6 0.00 0.00 0.00 58 1019.3
20260505073338 56 286 3.5 8.7 0.00 0.00 0.00 56 1019.4
20260505072834 56 298 7.0 10.4 0.00 0.00 0.00 54 1019.4
20260505072331 56 289 5.2 6.1 0.00 0.00 0.00 53 1019.7
20260505071827 56 279 4.3 6.1 0.00 0.00 0.00 51 1019.1
20260505071323 57 276 2.6 4.3 0.00 0.00 0.00 48 1019.7
20260505070822 57 279 2.6 5.2 0.00 0.00 0.00 47 1019.6
20260505070318 57 283 2.6 5.2 0.00 0.00 0.00 47 1019.3
20260505065813 57 274 4.3 5.2 0.00 0.00 0.00 47 1019.3
20260505065310 57 287 6.1 6.1 0.00 0.00 0.00 47 1019.3
20260505064807 57 300 6.1 6.1 0.00 0.00 0.00 46 1019.7
20260505064304 57 301 4.3 7.0 0.00 0.00 0.00 45 1019.3
20260505063802 57 297 2.6 5.2 0.00 0.00 0.00 45 1019.6
20260505063258 57 277 4.3 5.2 0.00 0.00 0.00 45 1019.8
20260505062755 57 293 6.1 7.0 0.00 0.00 0.00 45 1019.8
20260505062252 57 261 3.5 6.1 0.00 0.00 0.00 45 1019.9
20260505061749 57 253 4.3 6.1 0.00 0.00 0.00 44 1019.8
20260505061247 57 276 3.5 5.2 0.00 0.00 0.00 44 1019.9
20260505060744 57 251 2.6 3.5 0.00 0.00 0.00 45 1019.4
20260505060241 57 264 1.7 2.6 0.00 0.00 0.00 44 1019.6
20260505055736 57 266 1.7 3.5 0.00 0.00 0.00 44 1019.4
20260505055233 57 255 2.6 5.2 0.00 0.00 0.00 44 1019.6
20260505054730 57 267 2.6 4.3 0.00 0.00 0.00 44 1019.3
20260505054228 57 291 2.6 6.1 0.00 0.00 0.00 44 1019.4
20260505053726 56 297 5.2 7.8 0.00 0.00 0.00 45 1019.9
20260505053222 56 289 6.1 7.8 0.00 0.00 0.00 45 1019.9
20260505052720 56 259 1.7 6.1 0.00 0.00 0.00 46 1020.0
20260505052216 56 276 3.5 6.1 0.00 0.00 0.00 45 1019.9
20260505051714 57 288 3.5 7.8 0.00 0.00 0.00 45 1019.9
20260505051212 57 287 7.0 8.7 0.00 0.00 0.00 44 1019.9
20260505050709 56 275 6.1 7.8 0.00 0.00 0.00 45 1019.8
20260505050207 56 264 6.1 9.6 0.00 0.00 0.00 45 1019.7
20260505041637 57 290 12.2 12.2 0.00 0.00 0.00 45 1019.3
20260505041134 57 303 13.9 13.9 0.00 0.00 0.00 45 1019.1
20260505040631 57 286 7.0 14.8 0.00 0.00 0.00 45 1019.8
20260505040128 57 281 8.7 13.0 0.00 0.00 0.00 45 1020.0
20260505035624 57 288 6.1 13.0 0.00 0.00 0.00 45 1019.9
20260505035121 57 265 6.1 13.9 0.00 0.00 0.00 44 1019.9
20260505034618 57 297 7.0 14.8 0.00 0.00 0.00 44 1019.9
20260505034114 58 293 13.0 17.4 0.00 0.00 0.00 43 1019.7
20260505033611 58 308 9.6 15.6 0.00 0.00 0.00 43 1019.7
20260505033110 58 272 15.6 17.4 0.00 0.00 0.00 43 1019.6
20260505032607 59 301 15.6 20.0 0.00 0.00 0.00 42 1019.3
20260505032103 59 280 7.8 10.4 0.00 0.00 0.00 42 1019.6
20260505031601 59 313 11.3 15.6 0.00 0.00 0.00 42 1019.0
20260505031057 60 288 9.6 13.9 0.00 0.00 0.00 40 1019.2
20260505030554 60 281 7.8 13.9 0.00 0.00 0.00 39 1019.1
20260505030050 60 293 7.8 12.2 0.00 0.00 0.00 38 1018.9
20260505025546 60 302 6.1 13.9 0.00 0.00 0.00 38 1018.6
20260505025045 61 297 9.6 14.8 0.00 0.00 0.00 37 1018.4
20260505024541 61 297 11.3 13.0 0.00 0.00 0.00 37 1018.6
20260505024038 61 271 7.8 16.5 0.00 0.00 0.00 36 1018.5
20260505023536 62 307 7.8 12.2 0.00 0.00 0.00 35 1018.5
20260505023033 62 284 7.0 11.3 0.00 0.00 0.00 34 1018.3
20260505022531 62 289 7.0 11.3 0.00 0.00 0.00 33 1018.2
20260505022028 63 297 5.2 12.2 0.00 0.00 0.00 32 1018.2
20260505021524 63 295 7.0 12.2 0.00 0.00 0.00 31 1018.0
20260505021020 63 288 7.8 14.8 0.00 0.00 0.00 31 1018.5
20260505020515 64 276 7.0 13.9 0.00 0.00 0.00 31 1018.2
20260505020013 64 279 6.1 13.0 0.00 0.00 0.00 30 1018.4
20260505015509 64 296 5.2 10.4 0.00 0.00 0.00 30 1018.3
20260505015006 65 283 7.0 11.3 0.00 0.00 0.00 29 1018.0
20260505014503 65 296 8.7 12.2 0.00 0.00 0.00 29 1018.2
20260505014001 65 271 7.0 14.8 0.00 0.00 0.00 29 1018.0
20260505013457 66 301 6.1 12.2 0.00 0.00 0.00 29 1017.8
20260505012954 66 269 11.3 13.9 0.00 0.00 0.00 28 1018.0
20260505012453 67 298 11.3 13.0 0.00 0.00 0.00 28 1017.9
20260505011949 68 283 4.3 19.1 0.00 0.00 0.00 28 1018.2
20260505011445 68 285 10.4 16.5 0.00 0.00 0.00 28 1018.2
20260505010942 68 311 9.6 14.8 0.00 0.00 0.00 28 1018.3
20260505010438 68 305 11.3 17.4 0.00 0.00 0.00 28 1018.0
20260505005934 68 314 15.6 18.2 0.00 0.00 0.00 27 1018.3
20260505005431 69 274 8.7 11.3 0.00 0.00 0.00 26 1018.3
20260505004929 70 212 7.8 10.4 0.00 0.00 0.00 25 1017.9
20260505004425 70 252 5.2 10.4 0.00 0.00 0.00 26 1018.2
20260505003922 70 229 7.8 10.4 0.00 0.00 0.00 26 1018.4
20260505003419 70 233 7.8 15.6 0.00 0.00 0.00 26 1018.3
20260505002915 71 209 4.3 13.9 0.00 0.00 0.00 26 1018.4
20260505002412 71 240 9.6 13.9 0.00 0.00 0.00 26 1018.3
20260505001910 70 247 7.0 17.4 0.00 0.00 0.00 26 1018.0
20260505001407 72 257 9.6 14.8 0.00 0.00 0.00 25 1018.0
20260505000904 71 242 8.7 19.1 0.00 0.00 0.00 24 1018.3
20260505000402 71 266 7.0 16.5 0.00 0.00 0.00 25 1018.4
20260504235859 71 228 7.8 14.8 0.00 0.00 0.00 25 1018.5
20260504235356 71 243 8.7 13.0 0.00 0.00 0.00 24 1018.3
20260504234852 71 234 11.3 15.6 0.00 0.00 0.00 24 1018.3
20260504234350 71 271 7.8 20.9 0.00 0.00 0.00 24 1018.2
20260504233846 71 205 5.2 9.6 0.00 0.00 0.00 23 1018.2
20260504233342 71 250 10.4 17.4 0.00 0.00 0.00 23 1018.4
20260504232839 71 235 4.3 14.8 0.00 0.00 0.00 23 1018.3
20260504232336 71 238 13.9 16.5 0.00 0.00 0.00 23 1018.4
20260504231833 71 275 9.6 12.2 0.00 0.00 0.00 22 1018.4
20260504231329 71 259 13.0 20.9 0.00 0.00 0.00 22 1018.4
20260504230825 71 240 8.7 13.0 0.00 0.00 0.00 21 1018.2
20260504230323 71 251 13.9 15.6 0.00 0.00 0.00 21 1018.0
20260504225822 71 265 17.4 17.4 0.00 0.00 0.00 21 1018.4
20260504225318 72 233 13.9 14.8 0.00 0.00 0.00 20 1018.2
20260504224815 72 223 12.2 15.6 0.00 0.00 0.00 20 1018.3
20260504224312 71 234 8.7 18.2 0.00 0.00 0.00 19 1018.4
20260504223809 71 248 13.0 17.4 0.00 0.00 0.00 19 1018.3
20260504223304 72 251 9.6 17.4 0.00 0.00 0.00 18 1018.3
20260504222801 72 232 15.6 20.9 0.00 0.00 0.00 19 1018.6
20260504222258 72 246 10.4 14.8 0.00 0.00 0.00 20 1018.4
20260504221756 73 235 8.7 13.0 0.00 0.00 0.00 21 1018.5
20260504221253 72 265 6.1 20.0 0.00 0.00 0.00 21 1018.6
20260504220749 73 211 6.1 20.0 0.00 0.00 0.00 21 1018.6
20260504220246 73 249 11.3 16.5 0.00 0.00 0.00 20 1018.4
20260504215744 73 228 13.0 19.1 0.00 0.00 0.00 21 1018.6
20260504215240 73 233 7.0 12.2 0.00 0.00 0.00 21 1018.5
20260504214736 73 230 5.2 12.2 0.00 0.00 0.00 21 1018.6
20260504214233 73 259 9.6 17.4 0.00 0.00 0.00 20 1018.9
20260504213730 73 229 12.2 20.9 0.00 0.00 0.00 20 1018.6
20260504213226 73 217 8.7 18.2 0.00 0.00 0.00 19 1018.9
20260504212723 74 233 9.6 17.4 0.00 0.00 0.00 18 1018.7
20260504212220 75 264 10.4 14.8 0.00 0.00 0.00 18 1018.7
20260504211717 73 227 8.7 18.2 0.00 0.00 0.00 19 1018.5
20260504211213 74 208 7.8 13.9 0.00 0.00 0.00 20 1018.9
20260504210711 74 269 4.3 16.5 0.00 0.00 0.00 19 1018.6
20260504210208 75 246 9.6 13.9 0.00 0.00 0.00 20 1019.0
20260504205705 74 204 11.3 14.8 0.00 0.00 0.00 20 1019.0
20260504205202 74 199 8.7 15.6 0.00 0.00 0.00 21 1019.0
20260504204700 74 261 2.6 12.2 0.00 0.00 0.00 21 1019.0
20260504204153 75 153 7.8 9.6 0.00 0.00 0.00 20 1018.9
20260504203651 74 245 11.3 20.9 0.00 0.00 0.00 20 1018.9
20260504203148 74 184 6.1 16.5 0.00 0.00 0.00 21 1018.9
20260504202643 73 228 7.8 14.8 0.00 0.00 0.00 20 1019.0
20260504202140 74 258 3.5 5.2 0.00 0.00 0.00 20 1019.1
20260504201637 73 157 8.7 9.6 0.00 0.00 0.00 20 1019.3
20260504201135 73 225 5.2 14.8 0.00 0.00 0.00 21 1019.2
20260504200632 76 226 5.2 13.0 0.00 0.00 0.00 21 1019.2
20260504200128 76 201 6.1 8.7 0.00 0.00 0.00 23 1019.1
20260504195624 75 121 7.8 10.4 0.00 0.00 0.00 22 1019.1
20260504195121 73 178 1.7 11.3 0.00 0.00 0.00 23 1019.4
20260504194618 73 235 4.3 15.6 0.00 0.00 0.00 23 1019.3
20260504194114 73 155 4.3 11.3 0.00 0.00 0.00 22 1019.7
20260504193610 74 238 5.2 15.6 0.00 0.00 0.00 23 1019.3
20260504193109 74 191 2.6 7.0 0.00 0.00 0.00 24 1019.2
20260504192606 73 164 7.8 10.4 0.00 0.00 0.00 23 1019.4
20260504192104 73 140 7.0 10.4 0.00 0.00 0.00 24 1019.4
20260504191602 73 122 2.6 13.0 0.00 0.00 0.00 25 1019.4
20260504191058 72 182 10.4 13.0 0.00 0.00 0.00 25 1019.9
20260504190554 73 232 7.8 8.7 0.00 0.00 0.00 27 1019.9
20260504190050 71 170 9.6 11.3 0.00 0.00 0.00 29 1020.1
20260504185548 72 163 5.2 11.3 0.00 0.00 0.00 28 1020.1
20260504185044 73 327 1.7 8.7 0.00 0.00 0.00 27 1020.1
20260504184539 70 204 6.1 8.7 0.00 0.00 0.00 27 1020.3
20260504184035 71 205 10.4 13.0 0.00 0.00 0.00 27 1020.3
20260504183532 71 238 9.6 9.6 0.00 0.00 0.00 28 1020.1
20260504183031 70 229 6.1 10.4 0.00 0.00 0.00 30 1020.4
20260504182527 71 162 3.5 7.8 0.00 0.00 0.00 28 1020.4
20260504182025 70 166 5.2 12.2 0.00 0.00 0.00 27 1020.4
20260504181521 71 175 3.5 8.7 0.00 0.00 0.00 28 1020.3
20260504181020 70 198 1.7 7.8 0.00 0.00 0.00 31 1020.5
20260504180518 69 153 0.0 6.1 0.00 0.00 0.00 32 1020.5
20260504180017 69 139 5.2 7.8 0.00 0.00 0.00 31 1020.5
20260504175514 70 191 4.3 13.0 0.00 0.00 0.00 32 1020.7
20260504175011 70 145 7.0 9.6 0.00 0.00 0.00 32 1020.5
20260504174509 68 108 1.7 10.4 0.00 0.00 0.00 33 1020.7
20260504174005 68 157 5.2 10.4 0.00 0.00 0.00 33 1020.7
20260504173502 68 175 13.0 14.8 0.00 0.00 0.00 33 1020.8
20260504172959 67 152 5.2 11.3 0.00 0.00 0.00 35 1020.4
20260504172455 66 183 4.3 9.6 0.00 0.00 0.00 36 1020.5
20260504171952 67 156 3.5 13.0 0.00 0.00 0.00 35 1020.3
20260504171449 67 191 5.2 10.4 0.00 0.00 0.00 35 1020.6
20260504170946 68 233 4.3 7.0 0.00 0.00 0.00 35 1020.5
20260504170442 68 144 6.1 11.3 0.00 0.00 0.00 35 1020.5
20260504160402 65 155 4.3 10.4 0.00 0.00 0.00 37 1020.7
20260504150826 64 148 5.2 8.7 0.00 0.00 0.00 38 1020.5
20260504150322 64 157 3.5 7.8 0.00 0.00 0.00 38 1020.7
20260504141252 61 123 5.2 5.2 0.00 0.00 0.00 45 1020.5
20260504140749 60 259 2.6 6.1 0.00 0.00 0.00 46 1020.3
20260504140245 60 157 4.3 8.7 0.00 0.00 0.00 46 1020.6
20260504130713 59 186 2.6 4.3 0.00 0.00 0.00 46 1019.7
20260504130209 58 147 0.9 1.7 0.00 0.00 0.00 47 1019.4
20260504120133 55 239 0.9 2.6 0.00 0.00 0.00 54 1019.2
20260504110601 60 161 5.2 7.8 0.00 0.00 0.00 45 1018.9
20260504100522 61 191 1.7 7.0 0.00 0.00 0.00 42 1018.9
20260504081916 61 206 3.5 5.2 0.00 0.00 0.00 41 1019.6
20260504081413 61 246 2.6 4.3 0.00 0.00 0.00 41 1019.4